Location: Vancouver
(49.2500°N, 123.1330°W)
Time: 00:58:37
(UTC-07:00)

Oscar 11 - Visible Passes

Search period start: 24 May 2017 00:00
Search period end: 03 June 2017 00:00
Orbit: 615 x 625 km, 97.7° (Epoch: 23 May)

Date Brightness Start Highest point End Pass type
(mag) Time Alt. Az. Time Alt. Az. Time Alt. Az.
24 May 9.7 22:35:22 10° WSW 22:37:41 14° W 22:40:00 10° NW visible
27 May 8.6 21:49:06 10° SSW 21:53:06 35° W 21:57:08 10° NNW visible
28 May 9.2 22:06:58 10° SSW 22:10:33 25° W 22:14:09 10° NW visible
29 May 9.6 22:25:09 10° SW 22:28:02 17° W 22:30:55 10° NW visible
30 May 9.9 22:44:01 10° WSW 22:45:34 12° W 22:47:07 10° WNW visible
02 Jun 8.9 21:57:06 10° SSW 22:00:55 30° W 22:04:47 10° NNW visible
